SCP
0 0 0 0 0 0 0 0 0 0 0 0 0 0 0 0 0 0 0 0 0 0
0 0 0 0 0 0 0 0 0 0 0 0 0 0 0 0 0 0 0 0 0 0
0 0 0 0 0 0 0 0 0 0 0 0 0 0 0 0 0 0 0 0 0 0
0 0 0 0 0 0 0 0 0 0 0 0 0 0 0 0 0 0 0 0 0 0
0 0 0 0 0 0 0 0 0 0 0 0 0 0 0 0 0 0 0 0 0 0
0 0 0 0 0 0 0 0 0 0 0 0 0 0 0 0 0 0 0 0 0 0
0 0 0 0 0 0 0 0 0 0 0 0 0 0 0 0 0 0 0 0 0 0
0 0 0 0 0 0 0 0 0 0 0 0 0 0 0 0 -0 -0 0 0 0 0
0 0 0 0 0 0 0 0 0 0 0 0 0 0 0 0 -0 0 0 0 0 0
0 0 0 0 0 0 0 0 0 0 0 0 0 0 0 0 0 0 0 0 0 0
0 0 0 0 0 0 0 0 0 0 0 0 0 0 0 0 0 0 0 0 0 0
0 0 0 0 0 0 0 0 0 0 0 0 0 0 0 0 0 0 0 0 0 0
0 0 0 0 0 0 0 0 0 0 0 0 0 0 0 0 0 0 0 0 0 0
0 0 0 0 0 0 0 0 0 0 0 0 0 0 0 0 0 0 0 0 0 0
Wind_Speed_500mb
6 7 11 13 14 15 18 21 29 36 40 34 27 30 36 29 29 36 32 33 41 37
8 9 11 12 12 16 19 19 26 34 35 33 34 31 32 24 34 34 41 49 42 41
12 11 11 12 13 18 17 18 24 30 33 38 39 32 28 29 33 43 53 58 49 43
13 12 11 13 15 16 16 19 22 28 35 42 39 38 27 30 41 52 59 57 45 43
15 13 13 14 14 15 16 18 23 31 34 37 41 34 29 35 45 55 65 52 44 42
15 13 14 13 12 14 15 16 17 29 35 39 42 40 32 36 50 61 63 48 41 42
16 12 13 12 12 8 13 13 18 20 30 36 43 36 34 46 55 63 61 44 38 41
17 11 11 10 8 8 13 12 15 19 25 32 38 34 41 49 59 65 55 45 45 48
16 11 12 6 4 10 12 11 8 14 24 32 32 31 40 52 60 64 54 51 54 55
17 15 13 10 11 10 7 7 10 17 23 29 28 32 43 55 60 56 52 52 56 56
20 17 14 12 12 8 8 4 12 14 19 17 24 35 46 56 58 54 53 53 54 55
23 19 15 16 10 8 6 8 13 18 22 21 26 37 46 50 54 56 56 56 56 50
21 19 17 14 10 12 12 15 21 23 25 28 34 38 37 40 53 55 56 61 58 52
22 17 17 13 16 18 18 21 22 22 25 27 31 35 34 42 47 51 57 62 58 60
Wind_Direction_500mb
239 282 299 305 304 304 310 317 310 317 325 333 328 328 327 347 348 335 338 329 317 328
246 277 289 293 296 303 312 314 308 318 324 326 329 321 324 343 340 335 339 339 334 328
250 270 282 278 293 301 314 306 313 315 319 323 323 332 352 353 333 340 343 344 338 334
250 262 261 271 290 301 313 314 314 311 324 334 348 347 353 342 337 340 341 343 340 338
243 243 252 270 285 306 320 321 317 320 330 344 354 351 341 340 337 340 342 342 339 341
236 241 252 272 294 310 316 327 319 326 330 341 345 343 339 332 336 340 344 340 337 345
241 239 254 286 313 319 326 333 325 327 325 332 338 337 330 331 337 340 341 339 337 330
239 230 257 294 328 331 325 322 324 322 326 332 340 332 330 330 334 337 340 340 338 331
230 217 249 270 257 283 300 310 342 312 319 320 329 329 326 327 329 336 339 339 336 336
216 209 231 233 258 283 285 335 304 305 313 323 330 323 321 319 327 336 341 339 337 337
218 214 228 224 254 245 275 311 298 297 308 316 322 318 317 321 329 340 341 341 341 339
220 217 219 228 236 241 264 258 270 281 294 299 294 304 316 329 335 342 344 345 343 340
217 216 221 228 205 238 247 255 268 278 291 292 299 311 330 342 339 345 343 342 344 344
212 213 224 211 222 246 248 254 269 288 296 306 315 322 334 347 346 347 337 341 347 343
Wind_Speed_850mb
6 7 11 13 14 15 18 21 29 36 40 34 27 30 36 29 29 36 32 33 41 37
8 9 11 12 12 16 19 19 26 34 35 33 34 31 32 24 34 34 41 49 42 41
12 11 11 12 13 18 17 18 24 30 33 38 39 32 28 29 33 43 53 58 49 43
13 12 11 13 15 16 16 19 22 28 35 42 39 38 27 30 41 52 59 57 45 43
15 13 13 14 14 15 16 18 23 31 34 37 41 34 29 35 45 55 65 52 44 42
15 13 14 13 12 14 15 16 17 29 35 39 42 40 32 36 50 61 63 48 41 42
16 12 13 12 12 8 13 13 18 20 30 36 43 36 34 46 55 63 61 44 38 41
17 11 11 10 8 8 13 12 15 19 25 32 38 34 41 49 59 65 55 45 45 48
16 11 12 6 4 10 12 11 8 14 24 32 32 31 40 52 60 64 54 51 54 55
17 15 13 10 11 10 7 7 10 17 23 29 28 32 43 55 60 56 52 52 56 56
20 17 14 12 12 8 8 4 12 14 19 17 24 35 46 56 58 54 53 53 54 55
23 19 15 16 10 8 6 8 13 18 22 21 26 37 46 50 54 56 56 56 56 50
21 19 17 14 10 12 12 15 21 23 25 28 34 38 37 40 53 55 56 61 58 52
22 17 17 13 16 18 18 21 22 22 25 27 31 35 34 42 47 51 57 62 58 60
Wind_Direction_850mb
239 282 299 305 304 304 310 317 310 317 325 333 328 328 327 347 348 335 338 329 317 328
246 277 289 293 296 303 312 314 308 318 324 326 329 321 324 343 340 335 339 339 334 328
250 270 282 278 293 301 314 306 313 315 319 323 323 332 352 353 333 340 343 344 338 334
250 262 261 271 290 301 313 314 314 311 324 334 348 347 353 342 337 340 341 343 340 338
243 243 252 270 285 306 320 321 317 320 330 344 354 351 341 340 337 340 342 342 339 341
236 241 252 272 294 310 316 327 319 326 330 341 345 343 339 332 336 340 344 340 337 345
241 239 254 286 313 319 326 333 325 327 325 332 338 337 330 331 337 340 341 339 337 330
239 230 257 294 328 331 325 322 324 322 326 332 340 332 330 330 334 337 340 340 338 331
230 217 249 270 257 283 300 310 342 312 319 320 329 329 326 327 329 336 339 339 336 336
216 209 231 233 258 283 285 335 304 305 313 323 330 323 321 319 327 336 341 339 337 337
218 214 228 224 254 245 275 311 298 297 308 316 322 318 317 321 329 340 341 341 341 339
220 217 219 228 236 241 264 258 270 281 294 299 294 304 316 329 335 342 344 345 343 340
217 216 221 228 205 238 247 255 268 278 291 292 299 311 330 342 339 345 343 342 344 344
212 213 224 211 222 246 248 254 269 288 296 306 315 322 334 347 346 347 337 341 347 343